Location: Giffers
(46.7623°N, 7.2085°E)
Time: 09:50:58
(UTC+00:00)

Daily predictions for brighter satellites

Satellite Brightness Start Highest point End
(mag) Time Altitude Azimuth Time Altitude Azimuth Time Altitude Azimuth
FengYun 1-2 T 4.4 16:08:31 10° SE 16:13:54 52° ENE 16:19:14 10° N
COSMOS 2455 3.0 16:08:28 10° SSW 16:14:23 62° ESE 16:20:21 10° NE
SMAP 3.5 16:12:18 10° SE 16:16:37 40° ENE 16:20:57 10° N
NOAA 6 4.4 16:13:18 10° SE 16:18:07 43° ENE 16:22:57 10° N
Cosmos 1833 Rocket 2.9 16:15:34 10° SSW 16:21:11 75° WNW 16:26:51 10° NNE
Cosmos 1933 3.3 16:17:16 10° S 16:21:17 69° E 16:25:18 10° NNE
Cosmos 1805 Rocket 3.5 16:17:33 10° N 16:21:54 68° E 16:26:12 10° SSE
Cosmos 2278 3.9 16:16:42 10° NNW 16:22:17 52° ENE 16:27:49 10° SE
Cosmos 2333 Rocket 4.1 16:22:27 10° NNE 16:23:29 10° NNE 16:24:32 10° NE
NOAA 11 4.5 16:18:13 10° S 16:23:38 77° WSW 16:29:06 10° NNW
Cosmos 1602 3.7 16:20:54 10° N 16:24:47 75° E 16:28:40 10° SSE
USA 305 3.7 16:24:57 10° NW 16:28:53 35° NNE 16:32:49 10° E
CZ-2C R/B 3.9 16:27:01 10° NE 16:30:35 19° E 16:34:08 10° SE
Meteor 1-25 Rocket 4.4 16:26:02 10° NNW 16:31:38 79° W 16:37:16 10° S
SL-24 R/B - RUBIN 2 3.8 16:27:08 10° NW 16:31:39 76° SW 16:35:57 10° SSE
CZ-4B R/B 2.8 16:28:40 10° SSE 16:32:37 89° E 16:36:24 10° NNW
Cosmos 1500 3.1 16:31:20 10° N 16:35:03 63° E 16:38:44 10° SSE
Cosmos 44 Rocket 3.5 16:31:34 10° NNW 16:36:21 47° NE 16:40:59 10° ESE
COSMOS 2406 3.5 16:35:06 10° SW 16:40:49 70° WNW 16:46:33 10° NNE
Cosmos 1814 Rocket 4.1 16:36:41 10° S 16:41:46 55° ESE 16:46:49 10° NNE
Cosmos 921 Rocket 4.1 16:39:44 10° SSE 16:43:07 24° E 16:45:57 13° NE
Cosmos 1570 Rocket 4.1 16:43:32 10° S 16:48:38 55° ESE 16:53:45 10° NNE
Cosmos 1092 Rocket 4.4 16:46:57 10° NNW 16:53:16 70° W 16:59:31 10° S
CZ-4B R/B 3.6 16:48:29 10° SE 16:53:24 38° ENE 16:58:16 10° N
Cosmos 2298 Rocket 4.4 16:50:08 10° N 16:55:13 43° ENE 17:00:16 10° SE
CZ-2D R/B 3.4 16:51:56 10° SSE 16:55:37 47° ENE 16:59:18 10° N
USA 267 3.3 16:50:26 13° NE 16:56:25 75° SE 17:02:56 10° SW
ATLAS CENTAUR R/B 3.2 16:48:33 10° WSW 16:58:11 61° NW 17:01:31 16° NE
MOS 1-B 4.4 16:52:36 10° SE 16:58:12 56° ENE 17:03:52 10° N
Cosmos 1939 Rocket 3.1 16:54:11 10° S 16:58:16 73° WSW 17:02:20 10° NNW
Cosmos 1151 Rocket 3.0 16:56:51 10° S 17:01:08 66° E 17:05:29 10° NNE
USA 306 3.4 16:57:17 10° NW 17:01:22 43° NNE 17:03:51 21° E
COSMO-SKYMED 1 3.4 16:59:10 15° NE 17:02:00 29° E 17:05:46 10° SSE
Cosmos 1633 Rocket 3.0 16:57:39 10° N 17:02:02 64° E 17:06:23 10° SSE
Cosmos 1782 3.4 16:59:21 10° SSW 17:03:17 60° W 17:07:14 10° N
APEX 4.0 17:00:19 10° S 17:03:30 27° ESE 17:04:23 23° E
Cosmos 1666 2.5 17:00:03 10° N 17:03:47 75° E 17:07:29 10° SSE
Meteor 2-6 Rocket 4.3 16:58:40 10° S 17:04:11 53° E 17:09:35 10° NNE
Cosmos 2360 Rocket 3.2 17:01:18 10° N 17:05:57 25° NE 17:08:17 19° E
ISS -1.4 17:03:55 10° W 17:06:47 25° SW 17:09:37 10° SSE
Cosmos 1900 4.2 17:03:19 10° SSW 17:08:10 75° ESE 17:11:52 17° NE
PAYLOAD B 4.2 17:02:41 10° SSE 17:08:15 70° ENE 17:13:49 10° N
YAOGAN 1 4.4 17:11:21 14° NNE 17:11:21 14° NNE 17:12:21 10° NNE
Cosmos 1818 3.5 17:06:27 10° NW 17:11:58 85° NE 17:17:25 10° SE
CZ-2C R/B 3.7 17:13:47 10° SSW 17:16:24 16° S 17:18:57 10° SE
Cosmos 2279 Rocket 3.9 17:10:58 10° S 17:17:11 84° E 17:23:24 10° N
Cosmos 2142 Rocket 4.5 17:11:57 10° S 17:18:07 89° ESE 17:24:25 10° N
ATLAS 5 CENTAUR R/B 2.3 17:11:41 10° NW 17:18:32 44° NNE 17:19:39 32° ENE
Cosmos 841 Rocket 4.4 17:13:40 10° SW 17:18:37 46° WNW 17:23:36 10° NNE
Meteor 2-15 4.5 17:13:37 10° S 17:19:33 56° E 17:25:30 10° NNE
ERBS 4.3 17:18:59 10° NNW 17:20:46 15° N 17:20:46 15° N
Cosmos 2266 Rocket 4.1 17:14:51 10° N 17:21:09 54° ENE 17:27:24 10° SSE
USA 307 3.2 17:17:51 10° NW 17:22:00 49° NNE 17:23:33 32° ENE
CZ-4C R/B 3.4 17:15:45 10° NW 17:23:01 67° SW 17:31:25 10° SSE
SL-08 RB Rocket 4.2 17:20:39 10° SE 17:24:53 37° ENE 17:29:06 10° N
Lacrosse 5 rocket 1.4 17:21:16 10° NW 17:25:12 73° SW 17:28:57 12° SE
Cosmos 2208 Rocket 4.1 17:22:31 10° SSW 17:27:55 87° WNW 17:32:51 13° NNE
ATLAS 2AS CENTAUR R/B 4.1 17:22:56 10° NW 17:28:38 22° N 17:31:18 18° NE
Cosmos 2322 Rocket 2.3 17:23:27 10° NNW 17:29:02 51° ENE 17:34:35 10° SE
Cosmos 1933 Rocket 3.7 17:24:56 10° N 17:29:08 45° ENE 17:33:17 10° SSE
COSMOS 2428 4.4 17:26:04 10° N 17:28:44 16° NNE 17:28:44 16° NNE
USA 234 3.2 17:23:40 10° SE 17:30:15 90° WNW 17:36:49 10° NW
Cosmos 2150 Rocket 3.9 17:25:40 10° NNW 17:30:53 76° ENE 17:36:08 10° SSE
Cosmos 1328 Rocket 3.6 17:26:46 10° S 17:31:13 85° W 17:35:41 10° N
Cosmos 1666 Rocket 4.4 17:27:12 10° NNW 17:31:31 52° W 17:35:46 10° S
Cosmos 1980 Rocket 3.8 17:26:53 10° NW 17:32:01 36° WSW 17:37:04 10° S
Cosmos 1470 Rocket 3.5 17:30:43 10° N 17:35:13 84° E 17:39:42 10° S
Cosmos 1544 2.9 17:31:42 10° N 17:35:19 66° E 17:38:55 10° SSE
Cosmos 1867 4.0 17:31:56 10° S 17:37:02 42° ESE 17:38:27 35° E
Cosmos 1125 Rocket 3.4 17:31:50 10° NNW 17:37:07 79° ENE 17:42:23 10° SSE
Cosmos 1812 4.0 17:33:30 10° SSW 17:37:08 40° WNW 17:40:48 10° N
X-37B 1.8 17:35:31 10° SW 17:37:49 29° S 17:37:49 29° S
H-2A R/B 2.2 17:33:20 10° S 17:38:26 71° WSW 17:43:28 10° NNW
DEBRIS 4.1 17:36:36 10° S 17:38:35 24° SE 17:38:35 24° SE
Okean O Rocket 1.5 17:35:48 10° SSE 17:40:13 71° ENE 17:44:41 10° N
Meteor 2-8 Rocket 4.5 17:34:58 10° S 17:41:09 85° W 17:47:21 10° N
Meteor 1-10 Rocket 4.1 17:35:33 10° S 17:41:17 77° E 17:46:56 10° NNE
GEOS 3 Rocket 4.3 17:41:55 32° NE 17:42:23 33° NE 17:46:57 10° NNW
Meteor 1-11 Rocket 3.6 17:36:44 10° N 17:42:23 70° ENE 17:48:08 10° SSE
USA 32 4.1 17:38:18 10° SSE 17:43:19 51° E 17:46:22 23° NNE
USA 308 2.9 17:40:32 10° NW 17:44:45 62° NNE 17:45:21 55° ENE
SL-16 R/B 2.1 17:43:58 10° NNW 17:49:41 89° WSW 17:55:21 10° SSE
SKYMED 2 3.5 17:47:47 26° NNE 17:50:15 89° ESE 17:54:36 10° SSW
ARGOS 3.1 17:44:52 10° SSE 17:50:17 88° ENE 17:55:44 10° NNW
Cosmos 2082 Rocket 3.6 17:46:55 10° WSW 17:52:06 35° NW 17:56:57 11° NNE
deb Chang Zheng 4 3.8 17:51:31 10° S 17:55:49 70° WSW 18:00:07 10° NNW
COSMOS 2455 4.3 17:55:25 10° WSW 18:00:44 31° NW 18:04:54 15° NNE
Feng Yun 1-1 Rocket 4.2 17:59:16 10° SSE 18:05:09 78° ENE 18:11:00 10° NNW
USA 305 2.9 18:04:50 10° WNW 18:08:52 79° WNW 18:08:52 79° WNW
Cosmos 2333 Rocket 3.1 18:04:12 10° NNW 18:08:05 32° NNE 18:08:05 32° NNE
Cosmos 1356 Rocket 3.9 18:05:43 10° NNW 18:09:53 61° W 18:14:05 10° S
CZ-2C R/B 2.9 18:06:50 14° N 18:11:20 63° WNW 18:16:26 10° SSW
Cosmos 2219 Rocket 3.5 18:12:11 10° NNW 18:15:05 25° N 18:15:05 25° N
Aureole 3 Rocket 3.5 18:12:58 10° S 18:17:33 87° W 18:24:08 10° N
Cosmos 1515 Rocket 4.4 18:14:06 10° SSW 18:18:25 50° WNW 18:20:26 28° NNW
Cosmos 921 Rocket 4.5 18:17:22 10° SW 18:21:13 34° WNW 18:22:47 26° NNW
Nadezhda 2 Rocket 4.4 18:18:17 10° N 18:24:24 64° ENE 18:24:24 64° ENE
Spot 2 4.4 18:23:28 49° S 18:24:54 86° WSW 18:30:01 10° NNW
COSMO-SKYMED 1 4.3 18:36:23 23° NNW 18:38:09 31° WNW 18:41:57 10° SW
USA 267 3.8 18:37:47 42° NNE 18:39:15 50° NNW 18:45:29 10° W
USA 306 4.4 18:37:12 10° WNW 18:39:52 35° W 18:39:52 35° W
Meteor 1-27 Rocket 4.3 18:39:03 10° SSW 18:44:25 53° WNW 18:46:30 35° NNW
Cosmos 2360 Rocket 2.5 18:44:50 10° NNW 18:50:08 65° W 18:50:08 65° W
CZ-2C R/B 4.2 18:52:42 10° SW 18:53:23 12° SW 18:53:23 12° SW
Lacrosse 5 rocket 4.3 19:02:20 10° WSW 19:03:43 11° WSW 19:04:38 11° SW
Cosmos 2322 Rocket 4.0 19:08:01 10° NW 19:12:47 28° WSW 19:17:09 12° SSW
NOSS 3-4 (A) 4.3 19:11:29 10° NW 19:16:19 50° NNW 19:16:19 50° NNW
NOSS 3-4 (C) 4.4 19:11:35 10° NW 19:16:24 49° NNW 19:16:24 49° NNW
ATLAS 2AS CENTAUR R/B 4.0 19:14:36 10° NW 19:18:44 31° NNW 19:18:44 31° NNW
